K0TNT-10 Weather Reports


time (UTC)temp
C
wind
direction
speed
KPH
gust
KPH
rain 1hr
cm
rain 24hr
cm
rain mn
cm
humidity
%
barometer
mb
20260507224548 24 119 3.2 14.5 0.00 0.00 0.00 31 1008.8
20260507223027 24 115 1.6 22.5 0.00 0.00 0.00 32 1008.9
20260507221554 23 113 0.0 22.5 0.00 0.00 0.00 32 1009.1
20260507220022 23 119 6.4 17.7 0.00 0.00 0.00 31 1009.2
20260507214528 23 103 4.8 24.1 0.00 0.00 0.00 32 1009.4
20260507213015 23 104 3.2 25.7 0.00 0.00 0.00 31 1009.7
20260507211556 23 82 6.4 20.9 0.00 0.00 0.00 32 1009.8
20260507210032 23 121 4.8 24.1 0.00 0.00 0.00 32 1010.0
20260507204554 22 87 4.8 24.1 0.00 0.00 0.00 33 1010.4
20260507203024 22 117 8.0 27.4 0.00 0.00 0.00 33 1010.7
20260507201505 22 104 6.4 27.4 0.00 0.00 0.00 36 1010.9
20260507200022 22 125 4.8 29.0 0.00 0.00 0.00 36 1011.3
20260507194551 21 94 8.0 20.9 0.00 0.00 0.00 36 1011.4
20260507193020 21 96 4.8 20.9 0.00 0.00 0.00 36 1011.6
20260507191546 21 105 1.6 17.7 0.00 0.00 0.00 37 1011.9
20260507190016 20 110 4.8 22.5 0.00 0.00 0.00 38 1012.2
20260507184548 20 101 3.2 22.5 0.00 0.00 0.00 38 1012.4
20260507183033 20 110 6.4 29.0 0.00 0.00 0.00 41 1012.6
20260507181546 19 165 1.6 19.3 0.00 0.00 0.00 40 1012.8
20260507180019 19 120 6.4 19.3 0.00 0.00 0.00 42 1013.2
20260507174542 18 111 3.2 24.1 0.00 0.00 0.00 42 1013.4
20260507173016 18 98 1.6 19.3 0.00 0.00 0.00 42 1013.7
20260507171539 17 110 3.2 24.1 0.00 0.00 0.00 46 1013.9
20260507170028 17 117 9.7 29.0 0.00 0.00 0.00 49 1014.3
20260507164540 16 72 12.9 25.7 0.00 0.00 0.00 48 1014.5
20260507163035 16 99 14.5 25.7 0.00 0.00 0.00 49 1014.8
20260507161530 16 96 4.8 22.5 0.00 0.00 0.00 50 1014.7
20260507160006 15 101 6.4 24.1 0.00 0.00 0.00 54 1015.0
20260507154533 15 103 8.0 25.7 0.00 0.00 0.00 54 1015.2
20260507153107 15 77 8.0 30.6 0.00 0.00 0.00 56 1015.4
20260507151532 14 124 11.3 41.8 0.00 0.00 0.00 57 1015.6
20260507150108 13 100 0.0 20.9 0.00 0.00 0.00 62 1015.6
20260507144520 13 111 0.0 29.0 0.00 0.00 0.00 62 1015.9
20260507143100 12 101 0.0 14.5 0.00 0.00 0.00 65 1016.1
20260507141539 12 128 0.0 19.3 0.00 0.00 0.00 67 1016.2
20260507140035 11 75 1.6 19.3 0.00 0.00 0.00 69 1016.4
20260507134512 11 117 0.0 14.5 0.00 0.00 0.00 72 1016.5
20260507133046 10 89 1.6 12.9 0.00 0.00 0.00 74 1016.3
20260507131510 10 100 0.0 3.2 0.00 0.00 0.00 76 1016.5
20260507130050 8 110 0.0 3.2 0.00 0.00 0.00 78 1016.5
20260507124509 8 112 0.0 1.6 0.00 0.00 0.00 81 1016.3
20260507123048 7 110 0.0 0.0 0.00 0.00 0.00 82 1016.4
20260507121517 7 102 0.0 0.0 0.00 0.00 0.00 84 1016.4
20260507120041 7 103 0.0 0.0 0.00 0.00 0.00 85 1016.5
20260507114524 6 105 0.0 0.0 0.00 0.00 0.00 86 1016.6
20260507113053 6 113 0.0 0.0 0.00 0.00 0.00 86 1016.7
20260507111523 6 105 0.0 0.0 0.00 0.00 0.00 86 1016.6
20260507104529 6 103 0.0 0.0 0.00 0.00 0.00 84 1016.7
20260507103115 7 110 0.0 0.0 0.00 0.00 0.00 84 1016.7
20260507101549 7 106 0.0 0.0 0.00 0.00 0.00 83 1016.8
20260507100032 7 112 0.0 0.0 0.00 0.00 0.00 82 1016.8
20260507094602 7 92 0.0 0.0 0.00 0.00 0.00 80 1016.8
20260507094500 7 91 0.0 0.0 0.00 0.00 0.00 80 1016.8
20260507093029 7 99 0.0 0.0 0.00 0.00 0.00 80 1016.8
20260507091559 8 110 0.0 0.0 0.00 0.00 0.00 79 1016.8
20260507091509 8 115 0.0 0.0 0.00 0.00 0.00 79 1016.9
20260507090055 8 107 0.0 0.0 0.00 0.00 0.00 79 1017.0
20260507084540 8 109 0.0 0.0 0.00 0.00 0.00 78 1017.2
20260507083015 8 109 0.0 0.0 0.00 0.00 0.00 78 1017.3
20260507081539 7 113 0.0 0.0 0.00 0.00 0.00 78 1017.3
20260507080023 8 109 0.0 0.0 0.00 0.00 0.00 77 1017.4
20260507074547 8 112 0.0 0.0 0.00 0.00 0.00 76 1017.5
20260507073032 8 105 0.0 0.0 0.00 0.00 0.00 76 1017.6
20260507071505 8 110 0.0 0.0 0.00 0.00 0.00 74 1017.6
20260507070046 8 108 0.0 0.0 0.00 0.00 0.00 74 1017.7
20260507064505 8 110 0.0 0.0 0.00 0.00 0.00 73 1017.9
20260507063033 8 113 0.0 0.0 0.00 0.00 0.00 72 1018.1
20260507061502 9 109 0.0 0.0 0.00 0.00 0.00 70 1018.2
20260507060033 10 102 0.0 0.0 0.00 0.00 0.00 68 1018.2
20260507054614 10 115 0.0 0.0 0.00 0.00 0.00 66 1018.4
20260507053029 10 110 0.0 0.0 0.00 0.00 0.00 64 1018.5
20260507051501 11 102 0.0 0.0 0.00 0.00 0.00 63 1018.4
20260507050059 11 104 0.0 0.0 0.00 0.00 0.00 62 1018.4
20260507044523 11 102 0.0 0.0 0.00 0.00 0.00 62 1018.4
20260507043100 11 103 0.0 0.0 0.00 0.00 0.00 61 1018.4
20260507041529 11 100 0.0 0.0 0.00 0.00 0.00 62 1018.4
20260507040059 11 113 0.0 0.0 0.00 0.00 0.00 62 1018.4
20260507034535 11 110 0.0 0.0 0.00 0.00 0.00 62 1018.4
20260507033023 11 109 0.0 0.0 0.00 0.00 0.00 61 1018.4
20260507031550 11 110 0.0 0.0 0.00 0.00 0.00 60 1018.4
20260507030033 11 116 0.0 0.0 0.00 0.00 0.00 58 1018.5
20260507024516 11 103 0.0 0.0 0.00 0.00 0.00 55 1018.4
20260507023038 11 103 0.0 0.0 0.00 0.00 0.00 54 1018.3
20260507021518 11 103 0.0 0.0 0.00 0.00 0.00 52 1018.0
20260507020108 11 89 0.0 0.0 0.00 0.00 0.00 54 1017.8
20260507014529 11 89 0.0 0.0 0.00 0.00 0.00 52 1017.7
20260507013053 12 89 0.0 0.0 0.00 0.00 0.00 45 1017.5
20260507011559 13 89 0.0 0.0 0.00 0.00 0.00 42 1017.5
20260507010040 14 89 0.0 0.0 0.00 0.00 0.00 37 1017.4
20260507004552 16 89 0.0 0.0 0.00 0.00 0.00 33 1017.5
20260507004504 16 89 0.0 0.0 0.00 0.00 0.00 32 1017.5
20260507003034 17 72 0.0 0.0 0.00 0.00 0.00 30 1017.5
20260507001555 17 98 0.0 0.0 0.00 0.00 0.00 30 1017.5
20260507000025 17 105 0.0 0.0 0.00 0.00 0.00 31 1017.6
20260506234604 18 95 0.0 0.0 0.00 0.00 0.00 31 1017.6
20260506233022 17 112 0.0 0.0 0.00 0.00 0.00 32 1017.6
20260506231558 16 83 0.0 0.0 0.00 0.00 0.00 32 1017.6